• In Moldova, Republic
  • List of Countries
  • For 7 days
  • Water Temperature
  • Satellite Maps
  • Weather Map
  • Weather Widgets
  • user-avatar
    Login

    Hourly Weather Melbourne

    Today, 22 August, Tuesday

    Time Temperature Precipitation Wind Pressure Humidity
    00:00 +7°C° 0 mm 3 mps 761 mmHg 87%
    01:00 +5°C° 0 mm 3 mps 761 mmHg 88%
    02:00 +5°C° 0 mm 3 mps 762 mmHg 89%
    03:00 +5°C° 0 mm 3 mps 762 mmHg 90%
    04:00 +6°C° 0 mm 2 mps 761 mmHg 91%
    05:00 +6°C° 0 mm 2 mps 762 mmHg 91%
    06:00 +5°C° 0 mm 2 mps 762 mmHg 92%
    07:00 +5°C° 0 mm 2 mps 762 mmHg 92%
    08:00 +7°C° 0 mm 2 mps 763 mmHg 83%
    09:00 +10°C° 0 mm 2 mps 763 mmHg 74%
    10:00 +12°C° 0 mm 3 mps 763 mmHg 66%
    11:00 +14°C° 0 mm 2 mps 762 mmHg 61%
    12:00 +16°C° 0 mm 2 mps 762 mmHg 57%
    13:00 +17°C° 0 mm 2 mps 762 mmHg 53%
    14:00 +17°C° 0 mm 2 mps 762 mmHg 56%
    15:00 +17°C° 0 mm 2 mps 762 mmHg 58%
    16:00 +17°C° 0 mm 2 mps 762 mmHg 61%
    17:00 +15°C° 0 mm 2 mps 762 mmHg 68%
    18:00 +13°C° 0 mm 2 mps 762 mmHg 76%
    19:00 +12°C° 0 mm 2 mps 763 mmHg 84%
    20:00 +10°C° 0 mm 2 mps 763 mmHg 85%
    21:00 +9°C° 0 mm 3 mps 763 mmHg 87%
    22:00 +9°C° 0 mm 3 mps 764 mmHg 89%
    23:00 +9°C° 0 mm 3 mps 764 mmHg 89%

    Tomorrow, 23 August, Wednesday

    Time Temperature Precipitation Wind Pressure Humidity
    00:00 +8°C° 0 mm 3 mps 763 mmHg 89%
    01:00 +8°C° 0 mm 3 mps 763 mmHg 90%
    02:00 +8°C° 0 mm 3 mps 763 mmHg 90%
    03:00 +8°C° 0 mm 3 mps 763 mmHg 90%
    04:00 +8°C° 0 mm 3 mps 763 mmHg 90%
    05:00 +8°C° 0 mm 3 mps 763 mmHg 89%
    06:00 +8°C° 0 mm 3 mps 763 mmHg 89%
    07:00 +8°C° 0 mm 3 mps 763 mmHg 88%
    08:00 +10°C° 0 mm 3 mps 763 mmHg 83%
    09:00 +11°C° 0 mm 4 mps 763 mmHg 78%
    10:00 +13°C° 0 mm 4 mps 763 mmHg 73%
    11:00 +14°C° 0.1 mm 4 mps 762 mmHg 71%
    12:00 +14°C° 0.1 mm 4 mps 761 mmHg 69%
    13:00 +15°C° 0.1 mm 4 mps 761 mmHg 66%
    14:00 +15°C° 0.5 mm 4 mps 761 mmHg 70%
    15:00 +15°C° 0.5 mm 5 mps 760 mmHg 74%
    16:00 +14°C° 0.5 mm 5 mps 760 mmHg 78%
    17:00 +13°C° 2.4 mm 4 mps 761 mmHg 83%
    18:00 +11°C° 2.4 mm 4 mps 761 mmHg 88%
    19:00 +9°C° 2.4 mm 3 mps 762 mmHg 94%
    20:00 +9°C° 0.1 mm 3 mps 762 mmHg 93%
    21:00 +8°C° 0.1 mm 3 mps 763 mmHg 93%
    22:00 +7°C° 0.1 mm 3 mps 763 mmHg 93%
    23:00 +7°C° 0 mm 3 mps 763 mmHg 93%

    Day after tomorrow, 24 August, Thursday

    Time Temperature Precipitation Wind Pressure Humidity
    00:00 +7°C° 0 mm 3 mps 764 mmHg 93%
    01:00 +5°C° 0 mm 3 mps 764 mmHg 93%
    02:00 +5°C° 0 mm 3 mps 764 mmHg 93%
    03:00 +5°C° 0 mm 3 mps 764 mmHg 93%
    04:00 +5°C° 0 mm 3 mps 764 mmHg 93%
    05:00 +5°C° 0 mm 3 mps 765 mmHg 93%
    06:00 +5°C° 0 mm 3 mps 765 mmHg 92%
    07:00 +5°C° 0 mm 2 mps 765 mmHg 92%
    08:00 +7°C° 0 mm 3 mps 766 mmHg 88%
    09:00 +9°C° 0 mm 3 mps 766 mmHg 84%
    10:00 +10°C° 0 mm 3 mps 766 mmHg 79%
    11:00 +11°C° 0.1 mm 3 mps 766 mmHg 75%
    12:00 +12°C° 0.1 mm 3 mps 765 mmHg 71%
    13:00 +13°C° 0.1 mm 3 mps 765 mmHg 66%
    14:00 +13°C° 0.1 mm 3 mps 765 mmHg 67%
    15:00 +13°C° 0.1 mm 3 mps 765 mmHg 67%
    16:00 +13°C° 0.1 mm 3 mps 765 mmHg 68%
    17:00 +11°C° 0 mm 3 mps 766 mmHg 74%
    18:00 +9°C° 0 mm 3 mps 766 mmHg 81%
    19:00 +8°C° 0 mm 2 mps 767 mmHg 87%
    20:00 +7°C° 0 mm 2 mps 767 mmHg 89%
    21:00 +7°C° 0 mm 2 mps 768 mmHg 90%
    22:00 +7°C° 0 mm 2 mps 768 mmHg 92%
    23:00 +6°C° 0 mm 2 mps 768 mmHg 92%

    25 August, Friday

    Time Temperature Precipitation Wind Pressure Humidity
    00:00 +6°C° 0 mm 2 mps 768 mmHg 92%
    01:00 +6°C° 0 mm 2 mps 768 mmHg 93%
    02:00 +6°C° 0 mm 2 mps 768 mmHg 93%
    03:00 +5°C° 0 mm 2 mps 768 mmHg 93%
    04:00 +5°C° 0 mm 2 mps 768 mmHg 93%
    05:00 +5°C° 0 mm 2 mps 768 mmHg 94%
    06:00 +5°C° 0 mm 2 mps 768 mmHg 94%
    07:00 +5°C° 0 mm 2 mps 768 mmHg 94%
    08:00 +7°C° 0 mm 2 mps 768 mmHg 87%
    09:00 +9°C° 0 mm 2 mps 768 mmHg 79%
    10:00 +12°C° 0 mm 2 mps 768 mmHg 71%
    11:00 +12°C° 0 mm 3 mps 768 mmHg 67%
    12:00 +13°C° 0 mm 3 mps 768 mmHg 63%
    13:00 +14°C° 0 mm 3 mps 767 mmHg 58%
    14:00 +14°C° 0 mm 3 mps 767 mmHg 60%
    15:00 +13°C° 0 mm 3 mps 767 mmHg 62%
    16:00 +13°C° 0 mm 3 mps 767 mmHg 64%
    17:00 +13°C° 0 mm 2 mps 767 mmHg 71%
    18:00 +10°C° 0 mm 2 mps 768 mmHg 78%
    19:00 +8°C° 0 mm 2 mps 768 mmHg 84%
    20:00 +8°C° 0 mm 2 mps 768 mmHg 87%
    21:00 +7°C° 0 mm 2 mps 769 mmHg 89%
    22:00 +7°C° 0 mm 2 mps 769 mmHg 91%
    23:00 +6°C° 0 mm 2 mps 769 mmHg 91%

    26 August, Saturday

    Time Temperature Precipitation Wind Pressure Humidity
    00:00 +6°C° 0 mm 2 mps 768 mmHg 91%
    01:00 +6°C° 0 mm 2 mps 768 mmHg 92%
    02:00 +6°C° 0 mm 2 mps 768 mmHg 92%
    03:00 +6°C° 0 mm 2 mps 768 mmHg 92%
    04:00 +5°C° 0 mm 2 mps 768 mmHg 92%
    05:00 +5°C° 0 mm 2 mps 768 mmHg 92%
    06:00 +5°C° 0 mm 2 mps 768 mmHg 91%
    07:00 +5°C° 0 mm 2 mps 769 mmHg 91%
    08:00 +8°C° 0 mm 2 mps 769 mmHg 83%
    09:00 +10°C° 0 mm 2 mps 769 mmHg 75%
    10:00 +12°C° 0 mm 3 mps 769 mmHg 68%
    11:00 +13°C° 0 mm 3 mps 769 mmHg 66%
    12:00 +14°C° 0 mm 3 mps 769 mmHg 65%
    13:00 +14°C° 0 mm 3 mps 768 mmHg 63%
    14:00 +14°C° 0.2 mm 3 mps 768 mmHg 69%
    15:00 +13°C° 0.2 mm 3 mps 768 mmHg 74%
    16:00 +13°C° 0.2 mm 3 mps 768 mmHg 80%
    17:00 +12°C° 0 mm 3 mps 769 mmHg 83%
    18:00 +12°C° 0 mm 2 mps 769 mmHg 87%
    19:00 +9°C° 0 mm 2 mps 770 mmHg 90%
    20:00 +9°C° 0 mm 2 mps 770 mmHg 91%
    21:00 +8°C° 0 mm 2 mps 771 mmHg 91%
    22:00 +8°C° 0 mm 2 mps 771 mmHg 92%
    23:00 +8°C° 0 mm 2 mps 771 mmHg 92%

    27 August, Sunday

    Time Temperature Precipitation Wind Pressure Humidity
    00:00 +8°C° 0 mm 2 mps 771 mmHg 92%
    01:00 +8°C° 0 mm 2 mps 771 mmHg 91%
    02:00 +7°C° 0 mm 2 mps 771 mmHg 91%
    03:00 +7°C° 0 mm 2 mps 771 mmHg 91%
    04:00 +7°C° 0 mm 2 mps 771 mmHg 90%
    05:00 +7°C° 0 mm 2 mps 771 mmHg 90%
    06:00 +7°C° 0 mm 2 mps 771 mmHg 89%
    07:00 +6°C° 0 mm 2 mps 772 mmHg 89%
    08:00 +8°C° 0 mm 2 mps 772 mmHg 81%
    09:00 +9°C° 0 mm 3 mps 772 mmHg 73%
    10:00 +10°C° 0 mm 3 mps 772 mmHg 65%
    11:00 +11°C° 0 mm 3 mps 772 mmHg 61%
    12:00 +11°C° 0 mm 3 mps 771 mmHg 57%
    13:00 +12°C° 0 mm 3 mps 771 mmHg 54%
    14:00 +12°C° 0 mm 3 mps 770 mmHg 54%
    15:00 +11°C° 0 mm 3 mps 770 mmHg 54%
    16:00 +11°C° 0 mm 3 mps 770 mmHg 54%
    17:00 +10°C° 0 mm 3 mps 770 mmHg 60%
    18:00 +8°C° 0 mm 3 mps 771 mmHg 65%
    19:00 +7°C° 0 mm 2 mps 771 mmHg 71%
    20:00 +6°C° 0 mm 2 mps 771 mmHg 73%
    21:00 +6°C° 0 mm 2 mps 771 mmHg 76%
    22:00 +5°C° 0 mm 2 mps 771 mmHg 79%
    23:00 +5°C° 0 mm 2 mps 771 mmHg 80%
    Show more